This is the latest recevied weather packets stored in our database for station/object VR2HK-13. If no packets are shown the sender has not sent any weather packets the latest 10 day(s).
| Time | Temp. | Humidity | Pressure | Rain* | Wind** | Luminosity | Snow |
|---|---|---|---|---|---|---|---|
| 1777604349 | 25° C | 70% | 1015.6 hPa | 22.61 mm | - | - | - |
| 1777604240 | 25° C | 70% | 1015.6 hPa | 23.37 mm | - | - | - |
| 1777604048 | 24.44° C | 71% | 1015.6 hPa | 23.62 mm | - | - | - |
| 1777603930 | 24.44° C | 71% | 1015.6 hPa | 22.86 mm | - | - | - |
| 1777603748 | 24.44° C | 71% | 1015.6 hPa | 22.86 mm | - | - | - |
| 1777603449 | 24.44° C | 71% | 1015.7 hPa | 22.35 mm | - | - | - |
| 1777603310 | 24.44° C | 72% | 1015.7 hPa | 22.61 mm | - | - | - |
| 1777603148 | 24.44° C | 71% | 1015.8 hPa | 22.1 mm | - | - | - |
| 1777602999 | 24.44° C | 71% | 1015.9 hPa | 21.08 mm | - | - | - |
| 1777602848 | 24.44° C | 70% | 1015.9 hPa | 22.1 mm | - | - | - |
| 1777602690 | 25° C | 71% | 1015.8 hPa | 21.59 mm | - | - | - |
| 1777602548 | 24.44° C | 71% | 1015.7 hPa | 22.1 mm | - | - | - |
| 1777602380 | 24.44° C | 71% | 1015.8 hPa | 21.08 mm | - | - | - |
| 1777602249 | 24.44° C | 70% | 1015.8 hPa | 20.32 mm | - | - | - |
| 1777601759 | 25.56° C | 69% | 1015.8 hPa | 20.57 mm | - | - | - |
| 1777601648 | 25.56° C | 69% | 1015.9 hPa | 20.57 mm | - | - | - |
| 1777601450 | 25.56° C | 68% | 1015.9 hPa | 18.54 mm | - | - | - |
| 1777601348 | 25.56° C | 69% | 1016 hPa | 18.54 mm | - | - | - |
| 1777601140 | 26.11° C | 69% | 1016 hPa | 18.54 mm | - | - | - |
| 1777601049 | 25.56° C | 70% | 1016 hPa | 18.29 mm | - | - | - |
| 1777600829 | 25° C | 70% | 1016 hPa | 17.78 mm | - | - | - |
| 1777600748 | 25° C | 70% | 1016 hPa | 17.78 mm | - | - | - |
| 1777600519 | 25° C | 70% | 1016.1 hPa | 17.27 mm | - | - | - |
| 1777600448 | 25° C | 70% | 1016.1 hPa | 16.26 mm | - | - | - |
| 1777600209 | 25° C | 70% | 1016.1 hPa | 14.99 mm | - | - | - |
* Rain latest hour (hover to see other rain measurements)
** Current wind speed in m/s (hover to see current wind gust speed)